Location: College Park
(38.9810°N, 76.9370°W)
Time: 21:30:15
(UTC-04:00)

N. Korean satellite - Pass Details

Date: 12 January 2018
Orbit: 458 x 514 km, 97.2° (Epoch: 24 April)

Event Time Altitude Azimuth Distance (km) Brightness Sun altitude
Rises 06:49:00 0° 12° (NNE) 2,501 10.1 -7.4°
Reaches altitude 10° 06:51:04 10° 13° (NNE) 1,616 9.1 -7.0°
Maximum altitude 06:54:31 85° 103° (ESE) 466 6.5 -6.4°
Drops below altitude 10° 06:57:56 10° 191° (S) 1,595 9.4 -5.8°
Sets 06:59:58 0° 192° (SSW) 2,465 10.3 -5.4°
